South Lake Tahoe, CA

7:23 AM PST on January 24, 2017 (GMT -0800)
Lake Tahoe

Weather History for KTVL - October, 2012

Change the Weather History Date:

Sunday, October 21, 2012

  Actual Average Record
Temperature  
Mean Temperature 45 °F 44 °F  
Max Temperature 54 °F 61 °F 76 °F (2003)
Min Temperature 36 °F 27 °F 13 °F (1979)
Degree Days  
Heating Degree Days 20 21  
Month to date heating degree days 314 381  
Since 1 July heating degree days 733 1007  
Cooling Degree Days 0 0  
Month to date cooling degree days 0 0  
Year to date cooling degree days 30 31  
Moisture  
Dew Point 14 °F    
Average Humidity 33    
Maximum Humidity 59    
Minimum Humidity 6    
Precipitation  
Precipitation T in - 1.37 in (1961)
Month to date precipitation 0.29  
Year to date precipitation 11.35  
Sea Level Pressure  
Sea Level Pressure 29.77 in    
Wind  
Wind Speed 8 mph (SSW)    
Max Wind Speed 29 mph    
Max Gust Speed 41 mph    
Visibility 10 miles    
Events      
T = Trace of Precipitation, MM = Missing Value Source: NWS Daily Summary

Daily Weather History Graph

Daily Weather History Graph

Search for Another Location

Airport or City:

Trip Planner

Search our weather history database for the weather conditions in past years. The results will help you decide how hot, cold, wet, or windy it might be!

Date:

Astronomy

Oct. 21, 2012 Rise Set
Actual Time 7:16 AM PDT 6:12 PM PDT
Civil Twilight 6:48 AM PDT 6:39 PM PDT
Nautical Twilight 6:17 AM PDT 7:10 PM PDT
Astronomical Twilight 5:47 AM PDT 7:41 PM PDT
Moon 1:39 PM PDT (10/21) No Moon Set
Length of Visible Light 11h 50m
Length of Day
10h 56m
Waxing Crescent, 46% of the Moon is Illuminated
Oct 21
Waxing Crescent
Oct 21
First Quarter
Oct 29
Full
Nov 6
Last Quarter
Nov 13
New

Hourly Weather History & Observations

Time (PDT) Temp. Windchill Dew Point Humidity Pressure Visibility Wind Dir Wind Speed Gust Speed Precip Events Conditions
12:53 AM 39.9 °F - 28.9 °F 65% 29.79 in 10.0 mi Calm Calm - 0.00 in   Clear
1:53 AM 37.0 °F - 25.0 °F 62% 29.80 in 10.0 mi Calm Calm - N/A   Clear
2:53 AM 44.1 °F 42.5 °F 18.0 °F 35% 29.78 in 10.0 mi Variable 3.5 mph - N/A   Clear
3:53 AM 41.0 °F 38.0 °F 16.0 °F 36% 29.77 in 10.0 mi SSW 4.6 mph - N/A   Clear
4:53 AM 42.1 °F - 12.0 °F 29% 29.77 in 10.0 mi Calm Calm - N/A   Clear
5:53 AM 42.1 °F - 12.0 °F 29% 29.78 in 10.0 mi Calm Calm - N/A   Clear
6:53 AM 43.0 °F 37.2 °F 19.0 °F 38% 29.80 in 10.0 mi South 10.4 mph - N/A   Clear
7:53 AM 44.1 °F 38.1 °F 24.1 °F 45% 29.81 in 10.0 mi South 11.5 mph 19.6 mph N/A   Clear
8:53 AM 46.9 °F - 15.1 °F 28% 29.81 in 10.0 mi Variable 4.6 mph - N/A   Clear
9:53 AM 52.0 °F - -2.0 °F 11% 29.79 in 10.0 mi South 15.0 mph 21.9 mph N/A   Clear
10:53 AM 53.1 °F - -13.0 °F 6% 29.78 in 10.0 mi SSW 15.0 mph 27.6 mph N/A   Clear
11:53 AM 54.0 °F - -7.1 °F 8% 29.78 in 10.0 mi SSW 15.0 mph 29.9 mph N/A   Clear
12:53 PM 52.0 °F - 7.0 °F 16% 29.79 in 10.0 mi South 24.2 mph 34.5 mph N/A   Partly Cloudy
1:53 PM 50.0 °F - 14.0 °F 24% 29.79 in 10.0 mi SSW 19.6 mph 40.3 mph N/A   Mostly Cloudy
2:53 PM 48.9 °F - 12.9 °F 24% 29.78 in 10.0 mi South 19.6 mph 32.2 mph N/A   Mostly Cloudy
3:53 PM 46.0 °F 40.6 °F 12.9 °F 26% 29.81 in 10.0 mi SSW 11.5 mph 34.5 mph N/A   Mostly Cloudy
4:53 PM 45.0 °F 37.9 °F 15.1 °F 30% 29.80 in 10.0 mi SSW 16.1 mph 39.1 mph N/A   Partly Cloudy
5:53 PM 44.1 °F 37.4 °F 15.1 °F 31% 29.79 in 10.0 mi SSE 13.8 mph 27.6 mph N/A   Clear
6:53 PM 43.0 °F 36.8 °F 18.0 °F 37% 29.78 in 10.0 mi SSE 11.5 mph 24.2 mph N/A   Clear
7:53 PM 45.0 °F 38.2 °F 17.1 °F 33% 29.75 in 10.0 mi South 15.0 mph 33.4 mph N/A   Clear
8:53 PM 46.0 °F 39.3 °F 12.9 °F 26% 29.73 in 10.0 mi South 16.1 mph 28.8 mph N/A   Clear
9:53 PM 46.0 °F 38.3 °F 15.1 °F 29% 29.71 in 10.0 mi SSW 20.7 mph 32.2 mph N/A   Clear
10:53 PM 46.0 °F 39.0 °F 18.0 °F 33% 29.70 in 10.0 mi SSW 17.3 mph 29.9 mph N/A   Clear
11:53 PM 43.0 °F 38.2 °F 19.9 °F 40% 29.69 in 8.0 mi SW 8.1 mph 23.0 mph 0.00 in   Overcast